Regional Weather Roundup
Issued by NWS

Home | Current Version | Previous Version | Graphics & Text | Print | Product List | Glossary On
Versions: 1 2 3 4 5 6 7 8 9 10 11 12 13 14 15 16 17 18 19 20 21 22 23 24 25 26 27 28 29 30 31 32 33 34 35 36 37 38 39 40 41 42 43 44 45 46 47 48 49 50
000
ASUS43 KLSX 270610
RWRMO

WEATHER SUMMARY FOR MISSOURI
NATIONAL WEATHER SERVICE SPRINGFIELD MO
1200 AM CST MON FEB 27 2017

NOTE: "FAIR" INDICATES FEW OR NO CLOUDS BELOW 12,000 FEET WITH NO
       SIGNIFICANT WEATHER AND/OR OBSTRUCTIONS TO VISIBILITY.
       CURRENT SKY AND/OR WEATHER CONDITIONS ARE NOT AVAILABLE FOR
       CHILLICOTHE AND FARMINGTON.

MOZ001>031-035>038-043-044-053-054-270700-
...NORTHERN AND WESTERN MISSOURI...

CITY           SKY/WX    TMP DP  RH WIND       PRES   REMARKS
KANSAS CTY INT CLEAR     30  30 100 S9        30.02S WCI  22
6HR MIN TEMP:  30; 6HR MAX TEMP:  43;

KANSAS C DTWN  PTCLDY    39  35  86 CALM      30.04S
6HR MIN TEMP:  37; 6HR MAX TEMP:  48;

LEE`S SUMMIT   CLEAR     36  35  96 S3        30.03F
6HR MIN TEMP:  36; 6HR MAX TEMP:  45;

ST JOSEPH      CLEAR     32  27  81 CALM      30.03S
6HR MIN TEMP:  28; 6HR MAX TEMP:  47;

CHILLICOTHE      N/A     35  32  88 SW3       30.06R
6HR MIN TEMP:  34; 6HR MAX TEMP:  47;

KIRKSVILLE     CLEAR     31  30  96 S6        30.05F WCI  25
6HR MIN TEMP:  31; 6HR MAX TEMP:  43;


$$
MOZ066>068-077>081-088>096-101>105-270700-
...SOUTHWEST MISSOURI...

CITY           SKY/WX    TMP DP  RH WIND       PRES   REMARKS
SPRINGFIELD    PTCLDY    42  27  55 SE10      30.01F
6HR MIN TEMP:  42; 6HR MAX TEMP:  45;

JOPLIN         CLEAR     34  32  92 CALM      30.02S
6HR MIN TEMP:  31; 6HR MAX TEMP:  43;

BRANSON        CLOUDY    41  28  60 CALM      30.03F

$$
MOZ032>034-039>042-045>050-055>058-069>072-270700-
...CENTRAL MISSOURI...

CITY           SKY/WX    TMP DP  RH WIND       PRES   REMARKS
COLUMBIA       MOCLDY    38  35  89 SE7       30.05F
6HR MIN TEMP:  37; 6HR MAX TEMP:  42;

JEFFERSON CITY CLOUDY    39  35  86 E3        30.08F
6HR MIN TEMP:  39; 6HR MAX TEMP:  41; 6HR PCP: TRACE;

ROLLA          CLOUDY    37  35  92 SE9       30.04F
6HR MIN TEMP:  37; 6HR MAX TEMP:  38; 6HR PCP: TRACE;

SEDALIA        CLEAR     35  33  92 CALM      30.05F
6HR MIN TEMP:  33; 6HR MAX TEMP:  42;

WHITEMAN AFB   CLEAR     32  32 100 CALM      30.03F
WARRENSBURG    FOG       32  32 100 CALM      30.04S VSB 1/2
OSAGE BEACH    PTCLDY    37  35  92 E3        30.06F

$$
MOZ051-052-059>065-270700-
...EAST CENTRAL MISSOURI...

CITY           SKY/WX    TMP DP  RH WIND       PRES   REMARKS
ST LOUIS INTL  CLOUDY    43  35  73 SE6       30.11F
6HR MIN TEMP:  43; 6HR MAX TEMP:  44;

SPIRIT OF STL  CLOUDY    41  36  82 CALM      30.10F
6HR MIN TEMP:  40; 6HR MAX TEMP:  43; 6HR PCP: TRACE;

ST CHARLES     CLOUDY    40  37  89 CALM      30.11F
6HR MIN TEMP:  40; 6HR MAX TEMP:  44;


$$
MOZ072>076-082>087-097>100-106>115-270700-
...SOUTH CENTRAL AND SOUTHEAST MISSOURI...

CITY           SKY/WX    TMP DP  RH WIND       PRES   REMARKS
CAPE GIRARDEAU CLOUDY    46  33  60 SE6       30.13F
6HR MIN TEMP:  44; 6HR MAX TEMP:  49; 6HR PCP: TRACE;

FARMINGTON     CLOUDY    42  31  64 SE5       30.09F
6HR MIN TEMP:  40; 6HR MAX TEMP:  43; 6HR PCP: TRACE;

POPLAR BLUFF   CLOUDY    48  39  71 SE7       30.10F
6HR MIN TEMP:  46; 6HR MAX TEMP:  50; 6HR PCP: TRACE;

WEST PLAINS    CLOUDY    45  25  45 E5        30.06S
6HR MIN TEMP:  45; 6HR MAX TEMP:  48; 6HR PCP: TRACE;


$$




USA.gov is the U.S. government's official web portal to all federal, state and local government web resources and services.